Date String (YYYY-MM-DD hh:mm:ss) UTC,Instrument flags,Ambient pressure (hPa),Sample flow (lpm),Bypass flow (lpm),Sample temperature (°C),Ambient temperature (°C),ASC tube jacket temperature (°C),LED temperature (°C),Box temperature (°C),Sample RH (%),Mass concentration (μg/m³),Mass concentration (μg/m³)
DateTimeUTC,F1_M11,P_M11,Q1_M11,Q2_M11,T1_M11,T2_M11,T3_M11,T4_M11,T5_M11,U1_M11,X0_M11,X2_M11
2021-08-18 19:00:00,,0824.3,5.01,0.00,28.9,26.8,00.0,37.9,30.6,24.7,0028.02,0018.19
2021-08-18 19:01:00,,0824.3,5.01,0.00,28.8,25.6,00.0,37.9,30.2,24.9,0028.73,0018.30
2021-08-18 19:02:00,,0824.3,4.99,0.00,28.7,25.9,00.0,37.9,30.3,25.0,0029.54,0018.40
2021-08-18 19:03:00,,0824.3,5.01,0.00,28.7,26.3,00.0,37.8,30.4,25.1,0030.40,0018.59
2021-08-18 19:04:00,,0824.3,4.99,0.00,28.7,26.7,00.0,37.8,30.5,25.4,0030.96,0018.71
2021-08-18 19:05:00,,0824.2,5.00,0.00,28.8,27.1,00.0,37.8,30.6,25.1,0032.21,0018.74
2021-08-18 19:06:00,,0824.2,5.01,0.00,28.8,27.4,00.0,37.8,30.7,25.0,0033.34,0018.83
2021-08-18 19:07:00,,0824.3,5.00,0.00,28.9,27.8,00.0,37.8,30.8,25.2,0033.83,0018.92
2021-08-18 19:08:00,,0824.3,5.00,0.00,29.0,28.0,00.0,37.9,30.9,24.6,0033.73,0019.03
2021-08-18 19:09:00,,0824.3,5.00,0.00,29.0,27.8,00.0,37.9,30.9,24.5,0033.77,0019.14
2021-08-18 19:10:00,,0824.3,5.00,0.00,29.0,26.4,00.0,37.9,30.5,25.2,0033.77,0019.22
2021-08-18 19:11:00,,0824.2,5.01,0.00,28.8,25.8,00.0,37.9,30.3,25.5,0034.19,0019.23
2021-08-18 19:12:00,,0824.3,5.00,0.00,28.8,26.2,00.0,37.9,30.4,25.4,0034.27,0019.27
2021-08-18 19:13:00,,0824.3,5.00,0.00,28.8,26.6,00.0,37.9,30.5,24.9,0034.22,0019.35
2021-08-18 19:14:00,,0824.3,5.01,0.00,28.8,27.0,00.0,37.9,30.6,24.5,0034.20,0019.38
2021-08-18 19:15:00,,0824.3,5.00,0.00,28.9,27.4,00.0,37.9,30.8,24.3,0033.87,0019.45
2021-08-18 19:16:00,,0824.3,5.01,0.00,29.0,27.7,00.0,37.9,30.9,24.0,0033.72,0019.50
2021-08-18 19:17:00,,0824.2,4.99,0.00,29.0,27.6,00.0,37.9,30.8,24.1,0034.77,0019.54
2021-08-18 19:18:00,,0824.2,5.00,0.00,28.9,26.2,00.0,37.9,30.4,24.4,0034.74,0019.56
2021-08-18 19:19:00,,0824.2,5.01,0.00,28.8,25.7,00.0,37.9,30.2,24.7,0034.83,0019.52
2021-08-18 19:20:00,,0824.3,5.00,0.00,28.8,26.1,00.0,37.9,30.4,24.4,0034.70,0019.54
2021-08-18 19:21:00,,0824.3,4.99,0.00,28.8,26.5,00.0,37.8,30.5,24.6,0035.00,0019.51
2021-08-18 19:22:00,,0824.3,5.01,0.00,28.8,26.9,00.0,37.8,30.6,24.0,0034.66,0019.48
2021-08-18 19:23:00,,0824.3,4.99,0.00,28.9,27.3,00.0,37.9,30.7,23.4,0035.15,0019.44
2021-08-18 19:24:00,,0824.3,5.00,0.00,28.9,27.7,00.0,37.9,30.8,23.2,0035.01,0019.41
2021-08-18 19:25:00,,0824.2,5.00,0.00,29.0,27.5,00.0,37.9,30.8,23.3,0036.68,0019.35
2021-08-18 19:26:00,,0824.2,5.00,0.00,28.9,26.1,00.0,37.9,30.3,24.1,0037.94,0019.27
2021-08-18 19:27:00,,0824.3,5.01,0.00,28.7,25.6,00.0,37.9,30.1,24.1,0037.61,0019.25
2021-08-18 19:28:00,,0824.3,5.00,0.00,28.7,26.0,00.0,37.8,30.3,24.6,0036.68,0019.20
2021-08-18 19:29:00,,0824.3,5.00,0.00,28.7,26.4,00.0,37.8,30.4,24.9,0036.63,0019.22
2021-08-18 19:30:00,,0824.3,4.99,0.00,28.7,26.8,00.0,37.8,30.5,24.6,0036.60,0019.26
2021-08-18 19:31:00,,0824.2,5.01,0.00,28.8,27.2,00.0,37.8,30.6,24.5,0036.83,0019.26
2021-08-18 19:32:00,,0824.2,5.00,0.00,28.9,27.5,00.0,37.8,30.8,24.3,0037.54,0019.25
2021-08-18 19:33:00,,0824.2,4.99,0.00,28.9,27.9,00.0,37.9,30.9,23.8,0037.57,0019.30
2021-08-18 19:34:00,,0824.2,4.99,0.00,29.0,27.8,00.0,37.9,30.8,24.3,0036.81,0019.34
2021-08-18 19:35:00,,0824.1,5.01,0.00,28.9,26.2,00.0,37.9,30.4,24.8,0037.53,0019.43
2021-08-18 19:36:00,,0824.1,4.99,0.00,28.8,25.6,00.0,37.9,30.2,24.9,0036.11,0019.45
2021-08-18 19:37:00,,0824.1,4.99,0.00,28.7,26.0,00.0,37.9,30.3,25.3,0034.84,0019.45
2021-08-18 19:38:00,,0824.1,5.00,0.00,28.7,26.5,00.0,37.8,30.4,25.5,0034.56,0019.52
2021-08-18 19:39:00,,0824.1,5.00,0.00,28.8,26.9,00.0,37.8,30.6,25.3,0033.75,0019.51
2021-08-18 19:40:00,,0824.1,5.00,0.00,28.8,27.3,00.0,37.8,30.7,25.0,0034.20,0019.52
2021-08-18 19:41:00,,0824.1,4.99,0.00,28.9,27.6,00.0,37.8,30.8,25.0,0034.28,0019.56
2021-08-18 19:42:00,,0824.1,5.00,0.00,29.0,27.6,00.0,37.9,30.8,25.2,0033.84,0019.60
2021-08-18 19:43:00,,0824.1,5.00,0.00,28.9,26.2,00.0,37.9,30.3,25.3,0032.80,0019.68
2021-08-18 19:44:00,,0824.1,5.01,0.00,28.7,25.5,00.0,37.9,30.1,25.7,0032.75,0019.70
2021-08-18 19:45:00,,0824.1,5.00,0.00,28.7,26.0,00.0,37.8,30.3,25.9,0032.86,0019.73
2021-08-18 19:46:00,,0824.1,4.99,0.00,28.7,26.4,00.0,37.8,30.4,25.4,0032.27,0019.65
2021-08-18 19:47:00,,0824.1,5.01,0.00,28.7,26.7,00.0,37.8,30.5,25.1,0032.72,0019.64
2021-08-18 19:48:00,,0824.0,4.99,0.00,28.8,27.1,00.0,37.8,30.6,25.1,0032.99,0019.66
2021-08-18 19:49:00,,0824.0,4.99,0.00,28.9,27.5,00.0,37.8,30.7,24.6,0032.73,0019.63
2021-08-18 19:50:00,,0824.0,5.00,0.00,28.9,27.8,00.0,37.8,30.9,24.8,0032.88,0019.65
2021-08-18 19:51:00,,0824.0,5.01,0.00,28.9,27.1,00.0,37.9,30.7,24.9,0032.17,0019.62
2021-08-18 19:52:00,,0824.0,5.00,0.00,28.8,25.7,00.0,37.8,30.2,24.9,0031.77,0019.58
2021-08-18 19:53:00,,0824.0,5.00,0.00,28.7,25.8,00.0,37.8,30.2,25.5,0031.16,0019.51
2021-08-18 19:54:00,,0824.0,5.00,0.00,28.7,26.3,00.0,37.8,30.4,25.7,0030.87,0019.38
2021-08-18 19:55:00,,0824.0,5.01,0.00,28.7,26.7,00.0,37.8,30.5,25.4,0030.68,0019.32
2021-08-18 19:56:00,,0824.0,4.99,0.00,28.8,27.0,00.0,37.8,30.6,25.6,0030.86,0019.32
2021-08-18 19:57:00,,0824.0,4.99,0.00,28.8,27.4,00.0,37.8,30.7,24.8,0031.37,0019.34
2021-08-18 19:58:00,,0824.0,5.00,0.00,28.9,27.7,00.0,37.8,30.9,24.2,0030.58,0019.37
2021-08-18 19:59:00,,0824.0,5.01,0.00,29.0,27.8,00.0,37.9,30.9,24.1,0032.42,0019.41
